Home   Weather   Kazan   Past weeks
Flag for Russia

Past Weather in Kazan, Russia — Yesterday and Last 2 Weeks

Now
34 °F

Passing clouds.


Feels Like: 29 °F
Forecast: 35 / 30 °F
Wind: 6 mph from Northwest

Location: Kazan'

Current Time: Mar 21, 2019 at 12:57:16 am

Latest Report: Mar 21, 2019 at 12:00 am


Visibility: 4 mi

Pressure: 30.12 "Hg

Humidity: 93%

Dew Point: 32 °F

Location of KazanLocation

Past Weather in Kazan — Graph

°F

Kazan Temperature Yesterday

Maximum temperature yesterday: 39 °F (at 11:30 am)
Minimum temperature yesterday: 27 °F (at 1:00 am)
Average temperature yesterday: 34 °F

High & Low Weather Summary for the Past Weeks

 TemperatureHumidityPressure
High39 °F (Mar 18, 12:30 pm)100% (Mar 9, 12:00 pm)30.33 "Hg (Mar 9, 12:00 pm)
Low12 °F (Mar 7, 6:30 am)39% (Mar 8, 11:30 am)29.21 "Hg (Mar 6, 7:00 am)
Average28 °F78%29.93 "Hg
* Reported Mar 5 11:00 pm — Mar 20 11:30 pm, Kazan. Weather by CustomWeather, © 2019

Note: Actual official high and low records may vary slightly from our data, if they occured in-between our weather recording intervals... More about our weather records

Advertising

Kazan Weather History for the Previous 24 Hours

Scroll right to see more
 ConditionsComfort  
Time TempWeatherWind HumidityBarometerVisibility
11:30 pm
Wed, Mar 20
34 °FFog.6 mph93%30.12 "Hg3 mi
11:00 pm34 °FFog.6 mph93%30.12 "Hg3 mi
10:30 pm36 °FPassing clouds.6 mph93%30.12 "Hg4 mi
10:00 pm36 °FPassing clouds.3 mph93%30.12 "Hg4 mi
9:30 pm36 °FFog.6 mph93%30.12 "Hg3 mi
9:00 pm36 °FFog.3 mph93%30.15 "Hg3 mi
8:30 pm36 °FLight rain. Fog.3 mph93%30.15 "Hg3 mi
8:00 pm36 °FLight rain. Overcast.3 mph93%30.15 "Hg4 mi
7:30 pm36 °FLight rain. Overcast.3 mph93%30.15 "Hg4 mi
7:00 pm36 °FLight rain. Overcast.No wind93%30.15 "Hg4 mi
6:30 pm36 °FLight rain. Overcast.1 mph93%30.15 "Hg4 mi
6:00 pm36 °FLight rain. Overcast.3 mph93%30.15 "Hg6 mi
5:30 pm36 °FLight rain. Overcast.3 mph87%30.15 "Hg5 mi
5:00 pm36 °FLight rain. Overcast.6 mph87%30.15 "Hg6 mi
4:30 pm36 °FLight rain. Overcast.3 mph87%30.15 "HgN/A
3:30 pm36 °FPartly sunny.6 mph87%30.15 "HgN/A
3:00 pm37 °FSunny.6 mph75%30.15 "Hg10 mi
2:30 pm39 °FScattered clouds.8 mph75%30.18 "HgN/A
2:00 pm39 °FSunny.6 mph70%30.18 "Hg10 mi
1:30 pm37 °FSunny.10 mph75%30.18 "Hg10 mi
1:00 pm39 °FSunny.10 mph75%30.18 "Hg10 mi
12:30 pm39 °FSunny.10 mph70%30.18 "Hg10 mi
12:00 pm39 °FSunny.10 mph70%30.18 "Hg10 mi
11:30 am39 °FSunny.8 mph70%30.18 "Hg10 mi
11:00 am37 °FSunny.10 mph75%30.18 "Hg10 mi
10:30 am37 °FSunny.8 mph75%30.18 "Hg10 mi
10:00 am36 °FSunny.8 mph81%30.18 "Hg10 mi
9:30 am34 °FSunny.13 mph81%30.18 "Hg10 mi
9:00 am34 °FSunny.8 mph81%30.21 "Hg10 mi
8:30 am34 °FSunny.6 mph81%30.21 "Hg10 mi
8:00 am32 °FSunny.6 mph87%30.21 "Hg10 mi
7:30 am32 °FSunny.8 mph87%30.21 "Hg10 mi
7:00 am30 °FSunny.8 mph86%30.21 "Hg10 mi
6:30 am32 °FSunny.8 mph80%30.21 "Hg10 mi
6:00 am32 °FSunny.8 mph80%30.21 "Hg10 mi
5:30 am30 °FClear.8 mph86%30.21 "Hg10 mi
5:00 am30 °FClear.6 mph80%30.21 "Hg10 mi
4:30 am28 °FClear.6 mph86%30.21 "Hg10 mi
3:30 am28 °FClear.8 mph80%30.21 "Hg10 mi
3:00 am28 °FClear.6 mph80%30.24 "Hg10 mi
2:30 am27 °FClear.8 mph80%30.24 "Hg10 mi
2:00 am28 °FClear.8 mph74%30.24 "Hg10 mi
1:00 am27 °FClear.6 mph74%30.24 "Hg10 mi
12:30 am30 °FClear.13 mph64%30.24 "Hg10 mi
Weather by CustomWeather, © 2019

See weather overview